This is the latest recevied weather packets stored in our database for station/object PY3MO-13. If no packets are shown the sender has not sent any weather packets the latest 10 day(s).
| Time | Temp. | Humidity | Pressure | Rain* | Wind** | Luminosity | Snow |
|---|---|---|---|---|---|---|---|
| 1778220005 | 16.67° C | 97% | 1004.3 hPa | 2.29 mm | - | - | - |
| 1778219705 | 16.67° C | 97% | 1004.7 hPa | 2.29 mm | - | - | - |
| 1778219407 | 16.67° C | 96% | 1004.8 hPa | 2.29 mm | - | - | - |
| 1778219106 | 16.67° C | 94% | 1005 hPa | 2.03 mm | - | - | - |
| 1778218806 | 17.22° C | 93% | 1005 hPa | 2.03 mm | - | - | - |
| 1778218505 | 17.22° C | 91% | 1005.1 hPa | 2.03 mm | - | - | - |
| 1778218207 | 17.78° C | 85% | 1005.6 hPa | 1.78 mm | - | - | - |
| 1778217906 | 18.33° C | 81% | 1005.7 hPa | 0.76 mm | - | - | - |
| 1778217606 | 18.33° C | 80% | 1004.5 hPa | 0 mm | - | - | - |
| 1778217305 | 18.89° C | 79% | 1004.2 hPa | 0 mm | - | - | - |
| 1778217007 | 18.89° C | 78% | 1004.4 hPa | 0 mm | - | - | - |
| 1778216706 | 18.89° C | 77% | 1004.3 hPa | 0 mm | - | - | - |
| 1778216406 | 18.89° C | 76% | 1003.9 hPa | 0 mm | - | - | - |
| 1778216106 | 19.44° C | 75% | 1004 hPa | 0 mm | - | - | - |
| 1778215805 | 19.44° C | 74% | 1003.9 hPa | 0 mm | - | - | - |
| 1778215506 | 19.44° C | 74% | 1003.8 hPa | 0 mm | - | - | - |
| 1778215206 | 19.44° C | 73% | 1004.1 hPa | 0 mm | - | - | - |
| 1778214905 | 20° C | 73% | 1004.2 hPa | 0 mm | - | - | - |
| 1778214605 | 20° C | 72% | 1004.3 hPa | 0 mm | - | - | - |
| 1778214307 | 20.56° C | 70% | 1004.2 hPa | 0 mm | - | - | - |
| 1778214006 | 21.11° C | 69% | 1004.1 hPa | 0 mm | - | - | - |
| 1778213706 | 21.11° C | 66% | 1004.2 hPa | 0 mm | - | - | - |
| 1778213405 | 21.67° C | 65% | 1003.7 hPa | 0 mm | - | - | - |
| 1778213107 | 22.22° C | 65% | 1004.8 hPa | 0 mm | - | - | - |
| 1778212806 | 22.22° C | 65% | 1004.2 hPa | 0 mm | - | - | - |
* Rain latest hour (hover to see other rain measurements)
** Current wind speed in m/s (hover to see current wind gust speed)